#timestamp,LO_Frequency,Hit,StdDev 
1623078015.6,286047001.2,N
1623078035.4,286046999.1,N
1623078055.2,286046999.2,N
1623078075.1,286046996.5,N
1623078076.0,286046996.5,N
1623078095.8,286046999.4,N
1623078115.7,286046997.2,N
1623078135.5,286046994.9,Y
1623078155.3,286046997.2,P
1623078175.2,286046996.8,P
1623078195.0,286046997.1,N
1623078195.9,286046997.1,Y
1623078215.8,286047000.8,P
1623078235.6,286047000.0,N
1623078255.4,286047000.2,N
1623078275.3,286046999.9,N
1623078295.1,286047000.6,N
1623078315.8,286047000.2,N
1623078335.7,286047000.2,N
1623078355.5,286047002.2,N
1623078375.4,286046999.7,N
1623078395.2,286047001.4,N
1623078415.0,286047004.4,Y
1623078415.9,286047004.4,P
1623078435.8,286047001.5,N
1623078455.6,286047001.4,N
1623078475.4,286047002.3,N
1623078495.3,286047004.2,Y
1623078515.1,286047002.1,P
1623078535.9,286047002.3,P
1623078555.7,286047002.4,P
1623078575.5,286047002.8,Y
1623078595.4,286046998.8,P
1623078615.2,286046998.3,N
1623078635.1,286046998.4,N
1623078636.0,286046998.4,N
1623078655.8,286046998.4,N
1623078675.6,286046999.6,N
1623078695.5,286046997.0,N
1623078715.3,286046998.2,N
1623078735.1,286046998.6,N
1623078755.9,286047001.1,N
1623078775.7,286046999.2,N
1623078795.6,286046996.6,N
1623078815.4,286046999.4,N
1623078835.2,286046998.9,N
1623078855.1,286046998.3,N
1623078856.0,286046998.3,N
1623078875.8,286047000.4,N
1623078895.6,286047000.9,N
1623078915.5,286046998.3,N
1623078935.3,286046998.2,N
1623078955.2,286046998.2,N
1623078975.9,286046998.9,N
1623078995.7,286047001.2,N
1623079015.6,286046998.3,N
1623079035.4,286046996.6,N
1623079055.2,286047001.2,N
1623079075.1,286046998.5,N
1623079076.0,286046998.5,N
1623079095.8,286046998.8,N
1623079115.7,286046998.9,N
1623079135.5,286046998.4,N
1623079155.3,286046998.1,N
1623079175.2,286046999.9,N
1623079195.9,286047000.0,N
1623079215.7,286047000.8,N
1623079235.6,286046999.7,N
1623079255.4,286046999.7,N
1623079275.3,286046999.7,N
1623079295.1,286047000.9,N
1623079296.0,286047000.9,N
1623079315.8,286047000.4,N
1623079335.7,286046999.8,N
1623079355.5,286047002.3,N
1623079375.3,286047002.3,N
1623079395.2,286047000.2,N
1623079415.0,286047000.3,N
1623079415.9,286047000.3,N
1623079435.8,286047000.0,N
1623079455.6,286047000.5,N
1623079475.4,286047001.0,N
1623079495.3,286047000.7,N
1623079515.1,286047001.2,N
1623079535.8,286047001.2,N
1623079555.7,286047001.2,N
1623079575.5,286047000.9,N
1623079595.4,286047001.2,N
1623079615.2,286046998.1,N
1623079635.0,286047001.2,N
1623079635.9,286047001.2,N
1623079655.8,286046998.4,N
1623079675.6,286047001.2,N
1623079695.4,286046998.7,N
1623079715.3,286046998.8,N
1623079735.1,286046999.4,N
1623079755.9,286047000.7,N
1623079775.7,286046998.1,N
1623079795.5,286046998.7,N
1623079815.4,286047002.7,N
1623079835.2,286047002.5,N
1623079855.0,286047002.1,N
1623079855.9,286047002.1,N
1623079875.8,286047004.0,Y
1623079895.6,286047002.5,P
1623079915.5,286046999.7,N
1623079935.3,286046999.7,N
1623079955.1,286047002.7,N
1623079975.9,286046999.8,N
1623079995.7,286047000.6,N
1623080015.6,286047001.0,N
1623080035.4,286047000.2,N
1623080055.2,286047002.6,N
1623080075.1,286047002.5,N
1623080076.0,286047002.5,N
1623080095.8,286047002.5,N
1623080115.7,286047002.4,N
1623080135.5,286046999.7,N
1623080155.3,286047000.1,N
1623080175.2,286046999.7,N
1623080195.0,286047000.1,N
1623080195.9,286047000.1,N
1623080215.7,286047000.6,N
1623080235.6,286046999.9,N
1623080255.4,286046999.7,N
1623080275.3,286046999.9,N
1623080295.1,286047000.3,N
1623080296.0,286047000.3,N
1623080315.8,286047000.7,N
1623080335.7,286047000.9,N
1623080355.5,286046998.4,N
1623080375.3,286047000.0,N
1623080395.2,286047000.5,N
1623080415.0,286047000.2,N
1623080415.9,286047000.2,N
1623080435.8,286047002.8,N
1623080455.6,286047002.5,N
1623080475.4,286047002.2,N
1623080495.3,286047002.7,N
1623080515.1,286047001.9,N
1623080535.8,286046999.7,N
1623080555.7,286047001.1,N
1623080575.5,286046998.3,N
1623080595.4,286047000.7,N
1623080615.2,286046998.1,N
1623080635.0,286046998.6,N
1623080635.9,286046998.6,N
1623080655.8,286046998.3,N
1623080675.6,286046999.4,N
1623080695.5,286046999.6,N
1623080715.3,286046998.8,N
1623080735.1,286046998.9,N
1623080755.9,286046996.6,N
1623080775.7,286046996.7,N
1623080795.5,286046997.9,N
1623080815.4,286046997.5,N
1623080835.2,286046997.3,N
1623080855.1,286046997.6,N
1623080856.0,286046997.6,N
1623080875.8,286046996.9,N
1623080895.6,286046997.0,N
1623080915.5,286046999.6,N
1623080935.3,286046996.5,N
1623080955.2,286046997.2,N
1623080975.9,286046995.6,N
1623080995.7,286046997.2,N
1623081015.6,286046997.3,N
1623081035.4,286046997.3,N
1623081055.2,286046999.6,N
1623081075.1,286046999.0,N
1623081076.0,286046999.0,N
1623081095.8,286046998.2,N
1623081115.7,286046999.3,N
1623081135.5,286046998.4,N
1623081155.3,286046996.8,Y
1623081175.2,286046999.3,P
1623081195.0,286046999.6,N
1623081195.9,286046999.6,N
1623081215.8,286046999.1,N
1623081235.6,286046998.2,Y
1623081255.4,286047000.8,P
1623081275.3,286047000.9,N
1623081295.1,286047000.2,N
1623081315.9,286046999.7,N
1623081335.7,286047002.8,Y
1623081355.5,286047002.0,P
1623081375.4,286047002.1,N
1623081395.2,286047002.0,N
1623081415.1,286047002.7,Y
1623081416.0,286047002.7,P
1623081435.8,286046996.6,P
1623081455.6,286046999.0,N
1623081475.5,286046995.1,N
1623081495.3,286046993.7,N
1623081515.2,286046994.6,N
1623081535.9,286046991.9,N
1623081555.7,286046992.1,N
1623081575.6,286046994.1,N
1623081595.4,286046993.8,N
